Estación de Quillota

Ultimos registro cada 15 minutos 45
Estación Fecha / Hora Temperatura Humedad Lluvia Velocidad Dirección Radiación Presion
45 Quillota 02-05-2026 11:00 21,8 55 0 0,9 190 478 1014,5
44 Quillota 02-05-2026 10:45 21 57 0 0,9 279 450 1014,7
43 Quillota 02-05-2026 10:30 20,1 59 0 0,9 298 422 1014,8
42 Quillota 02-05-2026 10:15 19,3 63 0 1,3 242 390 1014,8
41 Quillota 02-05-2026 10:00 18,4 65 0 1,3 266 357 1014,9
40 Quillota 02-05-2026 09:45 17,7 67 0 1,3 276 318 1014,8
39 Quillota 02-05-2026 09:30 15,9 76 0 0,9 203 278 1014,9
38 Quillota 02-05-2026 09:15 13,6 89 0 0,9 167 241 1014,8
37 Quillota 02-05-2026 09:00 12,1 94 0 0 272 206 1014,8
36 Quillota 02-05-2026 08:45 10,4 95 0 0,9 201 167 1015,2
35 Quillota 02-05-2026 08:30 8,6 94 0 0 210 127 1015,2
34 Quillota 02-05-2026 08:15 7,3 92 0 0 202 83 1014,9
33 Quillota 02-05-2026 08:00 7,7 92 0 0,4 144 14 1015,1
32 Quillota 02-05-2026 07:45 7,3 90 0 0 196 11 1015,2
31 Quillota 02-05-2026 07:30 8,3 94 0 0,4 117 5 1015,2
30 Quillota 02-05-2026 07:15 6,9 93 0 1,8 157 0 1015
29 Quillota 02-05-2026 07:00 6,8 92 0 0 114 0 1014,8
28 Quillota 02-05-2026 06:45 6,7 92 0 0 113 0 1014,9
27 Quillota 02-05-2026 06:30 7,1 92 0 0,9 122 0 1014,6
26 Quillota 02-05-2026 06:15 7,1 92 0 0,4 122 0 1014,5
25 Quillota 02-05-2026 06:00 7,1 92 0 0 122 0 1014,5
24 Quillota 02-05-2026 05:45 7,4 92 0 0 121 0 1014,5
23 Quillota 02-05-2026 05:30 7,6 92 0 0,9 123 0 1014,6
22 Quillota 02-05-2026 05:15 7,9 93 0 0 123 0 1014,6
21 Quillota 02-05-2026 05:00 7,8 91 0 0,9 123 0 1014,7
20 Quillota 02-05-2026 04:45 7,1 91 0 0 144 0 1014,8
19 Quillota 02-05-2026 04:30 7,3 92 0 0,4 144 0 1014,8
18 Quillota 02-05-2026 04:15 7,2 91 0 0 100 0 1014,8
17 Quillota 02-05-2026 04:00 7,3 92 0 0,4 100 0 1014,8
16 Quillota 02-05-2026 03:45 7,1 91 0 0,9 99 0 1015
15 Quillota 02-05-2026 03:30 7,1 92 0 0,4 27 0 1015,2
14 Quillota 02-05-2026 03:15 7,1 91 0 0,4 127 0 1015,4
13 Quillota 02-05-2026 03:00 7,2 91 0 0 127 0 1015,8
12 Quillota 02-05-2026 02:45 7,8 91 0 0 127 0 1015,9
11 Quillota 02-05-2026 02:30 7,6 90 0 0 127 0 1016,1
10 Quillota 02-05-2026 02:15 8,4 92 0 0 127 0 1016,3
9 Quillota 02-05-2026 02:00 7,2 90 0 0,4 99 0 1016,4
8 Quillota 02-05-2026 01:45 7,6 90 0 0 99 0 1016,4
7 Quillota 02-05-2026 01:30 8,1 92 0 0,4 99 0 1016,5
6 Quillota 02-05-2026 01:15 8,3 90 0 0 74 0 1016,6
5 Quillota 02-05-2026 01:00 8,1 91 0 0 74 0 1016,8
4 Quillota 02-05-2026 00:45 7,7 90 0 0 73 0 1016,9
3 Quillota 02-05-2026 00:30 7,7 90 0 0 76 0 1017,2
2 Quillota 02-05-2026 00:15 8 90 0 0 76 0 1017,4
1 Quillota 02-05-2026 00:00 7,8 90 0 0 75 0 1017,5